Home > Weather > Firozpur > Past weeks

Flag for India Past Weather in Firozpur, Punjab, India — Yesterday and Last 2 Weeks

Now
88 °F

Passing clouds.


Feels Like: 105 °F
Forecast: 90 / 104 °F
Wind: 6 mph from Southeast

Location: Lahore Airport

Current Time: Jun 27, 2016 at 6:07:44 AM

Latest Report: Jun 27, 2016 at 4:55 AM


Visibility: 2 mi

Pressure: 29.53 "Hg

Humidity: 79%

Dew Point: 81 °F

Location of FirozpurLocation

Past Weather in Firozpur — Graph

°F

Firozpur Temperature Yesterday

Maximum temperature yesterday: 99 °F (at 2:29 PM)
Minimum temperature yesterday: 90 °F (at 5:30 AM)
Average temperature yesterday: 94 °F

High & Low Weather Summary for the Past Weeks

 TemperatureHumidityPressure
High109 °F (Jun 14, 3:29 PM)100% (Jun 22, 9:25 AM)29.68 "Hg (Jun 22, 9:25 AM)
Low73 °F (Jun 17, 2:55 AM)26% (Jun 13, 5:25 PM)29.33 "Hg (Jun 15, 3:55 PM)
Average92 °F57%29.53 "Hg
* Reported Jun 12 4:55 AM — Jun 27 4:55 AM, Firozpur, Weather by CustomWeather, © 2016

Note: Actual official high and low records may vary slightly from our data, if they occured in-between our weather recording intervals... More about our weather records

Advertising

Firozpur Weather History for the Previous 24 Hours

Scroll right to see more
 ConditionsComfort  
Time TempWeatherWind HumidityBarometerVisibility
4:55 AM
Mon, Jun 27
88 °FPassing clouds.6 mph79%29.53 "Hg2 mi
4:25 AM88 °FPassing clouds.6 mph79%29.53 "Hg2 mi
3:55 AM90 °FClear.5 mph75%29.53 "Hg2 mi
3:25 AM90 °FClear.5 mph75%29.53 "Hg2 mi
2:55 AM90 °FClear.5 mph75%29.53 "Hg2 mi
1:55 AM91 °FPassing clouds.5 mph71%29.53 "Hg2 mi
1:25 AM91 °FPassing clouds.6 mph71%29.53 "Hg2 mi
12:55 AM91 °FPassing clouds.5 mph71%29.53 "Hg2 mi
12:25 AM91 °FPassing clouds.5 mph71%29.53 "Hg2 mi
11:55 PM
Sun, Jun 26
91 °FPassing clouds.3 mph71%29.53 "Hg2 mi
11:25 PM93 °FPassing clouds.5 mph67%29.53 "Hg2 mi
10:25 PM93 °FPassing clouds.3 mph67%29.53 "Hg2 mi
9:55 PM95 °FPassing clouds.No wind60%29.50 "Hg2 mi
9:25 PM95 °FPassing clouds.6 mph60%29.50 "Hg2 mi
8:55 PM95 °FPassing clouds.6 mph63%29.47 "Hg2 mi
8:25 PM97 °FPassing clouds.8 mph60%29.47 "Hg2 mi
7:55 PM97 °FPassing clouds.5 mph60%29.47 "Hg2 mi
7:25 PM99 °FScattered clouds.3 mph57%29.50 "Hg2 mi
6:55 PM99 °FScattered clouds.5 mph57%29.47 "Hg2 mi
6:25 PM99 °FScattered clouds.6 mph57%29.50 "Hg2 mi
5:55 PM99 °FScattered clouds.6 mph57%29.50 "Hg2 mi
4:29 PM99 °FScattered clouds.9 mph53%29.53 "Hg2 mi
3:59 PM99 °FScattered clouds.13 mph53%29.53 "Hg3 mi
3:29 PM99 °FScattered clouds.8 mph53%29.53 "Hg3 mi
2:59 PM99 °FScattered clouds.12 mph53%29.56 "Hg3 mi
2:29 PM99 °FScattered clouds.12 mph53%29.56 "Hg3 mi
1:59 PM97 °FScattered clouds.12 mph56%29.56 "Hg2 mi
1:29 PM97 °FScattered clouds.13 mph56%29.59 "Hg2 mi
12:59 PM93 °FScattered clouds.13 mph63%29.59 "Hg2 mi
12:29 PM93 °FScattered clouds.13 mph63%29.62 "Hg2 mi
11:59 AM93 °FScattered clouds.13 mph63%29.62 "Hg2 mi
11:29 AM91 °FScattered clouds.13 mph67%29.62 "Hg2 mi
10:55 AM91 °FScattered clouds.13 mph67%29.62 "Hg2 mi
10:29 AM91 °FScattered clouds.13 mph67%29.62 "Hg2 mi
9:59 AM90 °FScattered clouds.13 mph71%29.62 "Hg2 mi
9:29 AM90 °FScattered clouds.15 mph71%29.62 "Hg2 mi
9:00 AM90 °FScattered clouds.16 mph71%29.62 "Hg2 mi
8:30 AM90 °FScattered clouds.16 mph71%29.59 "Hg2 mi
8:00 AM90 °FScattered clouds.14 mph67%29.59 "Hg2 mi
7:30 AM90 °FScattered clouds.15 mph67%29.59 "Hg2 mi
7:00 AM90 °FScattered clouds.15 mph67%29.59 "Hg2 mi
6:30 AM90 °FScattered clouds.12 mph63%29.59 "Hg2 mi
6:00 AM90 °FPassing clouds.12 mph63%29.59 "Hg2 mi
Weather by CustomWeather, © 2016

See weather overviewHow to use our weather pages